Home > Time Zones > World Clock > Weather > Fiji > Nadi > Past weeks

Flag for Fiji Weather past 2 weeks in Nadi, Fiji

Now
84 °F

Broken clouds.


Feels Like: 90 °F
Forecast: 77 / 85 °F
Wind: 8 mph from Southeast

Location: Nandi

Current Time: May 4, 2015 at 6:15:58 PM

Latest Report: May 4, 2015 at 5:00 PM


Visibility: N/A

Pressure: 29.83 "Hg

Humidity: 66%

Dew point: 72 °F

Location of NadiLocation

Historic Weather in Nadi — Graph

°F

Nadi temperature yesterday

Maximum temperature yesterday: 90 °F (at 12:00 PM)
Minimum temperature yesterday: 70 °F (at 7:00 AM)
Average temperature yesterday: 78 °F

Past Weeks' High & Low Weather Summary

 TemperatureHumidityPressure
High90 °F (Apr 20, 4:00 PM)100% (Apr 19, 6:00 PM)30.01 "Hg (Apr 19, 6:00 PM)
Low64 °F (Apr 22, 6:00 AM)49% (Apr 23, 12:00 PM)29.77 "Hg (Apr 22, 4:00 PM)
Average77 °F76%29.90 "Hg
* Reported Apr 19 5:00 PM — May 4 5:00 PM, Nadi, Weather by CustomWeather, © 2015

Note: Actual official high and low records may vary slightly from our data, if they occured in-between our weather recording intervals... More about our weather records

Advertising

Nadi weather history for previous 24 hours

 ConditionsComfort  
Time TempWeatherWind HumidityBarometerVisibility
5:00 PM
Mon, May 4
84 °FBroken clouds.8 mph66%29.83 "HgN/A
4:00 PM84 °FScattered clouds.8 mph70%29.83 "HgN/A
3:00 PM86 °FBroken clouds.12 mph70%29.80 "HgN/A
2:00 PM84 °FBroken clouds.9 mph70%29.83 "HgN/A
1:00 PM86 °FScattered clouds.10 mph70%29.86 "HgN/A
12:00 PM84 °FScattered clouds.5 mph70%29.89 "HgN/A
11:00 AM86 °FScattered clouds.7 mph66%29.92 "HgN/A
10:00 AM84 °FScattered clouds.8 mph66%29.92 "HgN/A
9:00 AM82 °FBroken clouds.6 mph70%29.92 "HgN/A
8:00 AM79 °FScattered clouds.6 mph84%29.92 "HgN/A
7:00 AM75 °FPassing clouds.2 mph89%29.89 "HgN/A
6:00 AM73 °FPassing clouds.5 mph89%29.89 "HgN/A
5:00 AM72 °FPassing clouds.6 mph94%29.86 "HgN/A
4:00 AM72 °FPassing clouds.2 mph94%29.86 "HgN/A
3:00 AM72 °FPassing clouds.2 mph94%29.89 "HgN/A
2:00 AM72 °FPassing clouds.6 mph94%29.92 "HgN/A
1:00 AM73 °FPassing clouds.2 mph94%29.92 "HgN/A
12:00 AM73 °FPassing clouds.3 mph94%29.95 "HgN/A
11:00 PM
Sun, May 3
73 °FPassing clouds.No wind94%29.95 "HgN/A
10:00 PM75 °FPassing clouds.3 mph94%29.95 "HgN/A
9:00 PM75 °FPartly cloudy.3 mph94%29.95 "HgN/A
8:00 PM77 °FPartly cloudy.5 mph94%29.95 "HgN/A
7:00 PM79 °FPassing clouds.3 mph94%29.92 "HgN/A
6:00 PM79 °FPassing clouds.5 mph89%29.89 "HgN/A
Weather by CustomWeather, © 2015

See weather overviewHow to use our weather pages